SCP
0 0 0 0 0 0 0 0 0 0 0 0 0 0 0 0 0 0 0 0 0 0 0 0 0 0 0 0 0 0 0 0 0 0 0 0 0 0 0 0 0 0 0 0 0 0 0 0 0
0 0 0 0 0 0 0 0 0 0 0 0 0 0 0 0 0 0 0 0 0 0 0 0 0 0 0 0 0 0 0 0 0 0 0 0 0 0 0 0 0 0 0 0 0 0 0 0 0
0 0 0 0 0 0 0 0 0 0 0 0 0 0 0 0 0 0 0 0 0 0 0 0 0 0 0 0 0 0 0 0 0 0 0 0 0 0 0 0 0 0 0 0 0 0 0 0 0
0 0 0 0 0 0 0 0 0 0 0 0 0 0 0 0 0 0 0 0 0 0 0 0 0 0 0 0 0 0 0 0 0 0 0 0 0 0 0 0 0 0 0 0 0 0 0 0 0
0 0 0 0 0 0 0 0 0 0 0 0 0 0 0 0 0 0 0 0 0 0 0 0 0 0 0 0 0 0 0 0 0 0 0 0 0 0 0 0 0 0 0 0 0 0 0 0 0
0 0 0 0 0 0 0 0 0 0 0 0 0 0 0 0 0 0 0 0 0 0 0 0 0 0 0 0 0 0 0 0 0 0 0 0 0 0 0 0 0 0 0 0 0 0 0 0 0
0 0 0 0 0 0 0 0 0 0 0 0 0 0 0 0 0 0 0 0 0 0 0 0 0 0 0 0 0 0 0 0 0 0 0 0 0 0 0 0 0 0 0 0 0 0 0 0 0
0 0 0 0 0 0 0 0 0 0 0 0 0 0 0 0 0 0 0 0 0 0 0 0 0 0 0 0 0 0 0 0 0 0 0 0 0 0 0 0 0 0 0 0 0 0 0 0 0
0 0 0 0 0 0 0 0 0 0 0 0 0 0 0 0 0 0 0 0 0 0 0 0 0 0 0 0 0 0 0 0 0 0 0 0 0 0 0 0 0 0 0 0 0 0 0 0 0
0 0 0 0 0 0 0 0 0 0 0 0 0 0 0 0 0 0 0 0 0 0 0 0 0 0 0 0 0 0 0 0 0 0 0 0 0 0 0 0 0 0 0 0 0 0 0 0 0
0 0 0 0 0 0 0 0 0 0 0 0 0 0 0 0 0 0 0 0 0 0 0 0 0 0 0 0 0 0 0 0 0 0 0 0 0 0 0 0 0 0 0 0 0 0 0 0 0
0 0 0 0 0 0 0 0 0 0 0 0 0 0 0 0 0 0 0 0 0 0 0 0 0 0 0 0 0 0 0 0 0 0 0 0 0 0 0 0 0 0 0 0 0 0 0 0 0
0 0 0 0 0 0 0 0 0 0 0 0 0 0 0 0 0 0 0 0 0 0 0 0 0 0 0 0 0 0 0 0 0 0 0 0 0 0 0 0 0 0 0 0 0 0 0 0 0
0 0 0 0 0 0 0 0 0 0 0 0 0 0 0 0 0 0 0 0 0 0 0 0 0 0 0 0 0 0 0 0 0 0 0 0 0 0 0 0 0 0 0 0 0 0 0 0 0
0 0 0 0 0 0 0 0 0 0 0 0 0 0 0 0 0 0 0 0 0 0 0 0 0 0 0 0 0 0 0 0 0 0 0 0 0 0 0 0 0 0 0 0 0 0 0 0 0
0 0 0 0 0 0 0 0 0 0 0 0 0 0 0 0 0 0 0 0 0 0 0 0 0 0 0 0 0 0 0 0 0 0 0 0 0 0 0 0 0 0 0 0 0 0 0 0 0
0 0 0 0 0 0 0 0 0 0 0 0 0 0 0 0 0 0 0 0 0 0 0 0 0 0 0 0 0 0 0 0 0 0 0 0 0 0 0 0 0 0 0 0 0 0 0 0 0
0 0 0 0 0 0 0 0 0 0 0 0 0 0 0 0 0 0 0 0 0 0 0 0 0 0 0 0 0 0 0 0 0 0 0 0 0 0 0 0 0 0 0 0 0 0 0 0 0
0 0 0 0 0 0 0 0 0 0 0 0 0 0 0 0 0 0 0 0 0 0 0 0 0 0 0 0 0 0 0 0 0 0 0 0 0 0 0 0 0 0 0 0 0 0 0 0 0
0 0 0 0 0 0 0 0 0 0 0 0 0 0 0 0 0 0 0 0 0 0 0 0 0 0 0 0 0 0 0 0 0 0 0 0 0 0 0 0 0 0 0 0 0 0 0 0 0
0 0 0 0 0 0 0 0 0 0 0 0 0 0 0 0 0 0 0 0 0 0 0 0 0 0 0 0 0 0 0 0 0 0 0 0 0 0 0 0 0 0 0 0 0 0 0 0 0
0 0 0 0 0 0 0 0 0 0 0 0 0 0 0 0 0 0 0 0 0 0 0 0 0 0 0 0 0 0 0 0 0 0 0 0 0 0 0 0 0 0 0 0 0 0 0 0 0
0 0 0 0 0 0 0 0 0 0 0 0 0 0 0 0 0 0 0 0 0 0 0 0 0 0 0 0 0 0 0 0 0 0 0 0 0 0 0 0 0 0 0 0 0 0 0 0 0
0 0 0 0 0 0 0 0 0 0 0 0 0 0 0 0 0 0 0 0 0 0 0 0 0 0 0 0 0 0 0 0 0 0 0 0 0 0 0 0 0 0 0 0 0 0 0 0 0
0 0 0 0 0 0 0 0 0 0 0 0 0 0 0 0 0 0 0 0 0 0 0 0 0 0 0 0 0 0 0 0 0 0 0 0 0 0 0 0 0 0 0 0 0 0 0 0 0
0 0 0 0 0 0 0 0 0 0 0 0 0 0 0 0 0 0 0 0 0 0 0 0 0 0 0 0 0 0 0 0 0 0 0 0 0 0 0 0 0 0 0 0 0 0 0 0 0
0 0 0 0 0 0 0 0 0 0 0 0 0 0 0 0 0 0 0 0 0 0 0 0 0 0 0 0 0 0 0 0 0 0 0 0 0 0 0 0 0 0 0 0 0 0 0 0 0
0 0 0 0 0 0 0 0 0 0 0 0 0 0 0 0 0 0 0 0 0 0 0 0 0 0 0 0 0 0 0 0 0 0 0 0 0 0 0 0 0 0 0 0 0 0 0 0 0
0 0 0 0 0 0 0 0 0 0 0 0 0 0 0 0 0 0 0 0 0 0 0 0 0 0 0 0 0 0 0 0 0 0 0 0 0 0 0 0 0 0 0 0 0 0 0 0 0
0 0 0 0 0 0 0 0 0 0 0 0 0 0 0 0 0 0 0 0 0 0 0 0 0 0 0 0 0 0 0 0 0 0 0 0 0 0 0 0 0 0 0 0 0 0 0 0 0
Wind_Speed
6 5 3 1 2 3 2 3 1 2 2 2 3 4 3 2 1 0 1 3 4 4 3 4 5 5 5 6 6 6 6 7 7 8 9 9 9 9 9 8 8 8 8 9 8 8 9 9 10
5 5 2 1 3 3 3 3 2 2 1 2 3 4 4 3 2 2 1 2 4 4 3 3 5 5 5 6 5 6 6 6 7 8 8 8 8 8 8 8 8 8 8 8 8 8 9 9 10
6 3 1 2 2 1 2 2 1 1 1 2 2 3 3 2 1 2 1 4 4 3 2 3 5 5 5 5 5 6 6 6 6 7 7 7 7 7 7 7 7 7 7 8 8 8 8 8 9
3 1 2 3 2 2 2 2 0 1 2 4 3 3 3 3 2 2 4 5 4 2 1 2 4 5 5 6 5 5 5 5 6 6 6 6 6 6 6 6 6 6 6 7 7 7 7 8 8
1 2 4 3 3 3 2 2 2 2 2 3 3 3 3 4 4 6 5 4 4 2 1 0 3 4 5 6 5 5 5 5 6 7 6 6 6 5 5 5 5 6 6 6 6 6 7 7 7
2 3 4 2 3 3 2 2 2 3 2 3 3 3 2 3 4 4 4 3 3 2 1 1 2 4 5 6 5 5 5 6 6 6 6 5 5 4 4 4 4 5 5 6 6 6 6 6 6
2 3 1 1 3 3 1 2 2 2 3 2 2 3 1 2 2 4 4 4 3 3 2 2 2 2 5 5 5 5 5 6 6 6 5 5 4 4 3 3 3 4 4 5 5 5 5 6 6
2 3 1 1 1 2 1 2 2 2 2 2 3 4 2 1 3 5 5 4 4 3 3 3 3 3 2 2 4 4 5 5 5 5 4 4 3 3 2 2 3 3 3 4 4 4 4 5 5
2 3 0 2 2 2 0 2 1 3 4 3 3 3 4 6 6 6 5 4 3 3 3 3 3 2 2 2 2 3 4 4 4 3 4 3 2 1 1 2 2 2 3 3 3 2 3 3 4
3 2 3 3 2 1 0 1 1 3 3 3 5 6 7 7 6 6 4 3 2 1 2 2 3 2 2 2 2 2 2 3 3 2 2 2 2 1 1 1 1 1 2 2 1 2 2 2 1
3 4 3 1 2 2 1 1 2 4 1 2 5 7 7 6 5 5 3 2 1 1 1 2 2 3 3 2 2 2 2 2 2 3 3 2 2 1 1 1 1 1 1 1 1 1 1 1 1
2 3 2 1 1 2 2 2 3 3 3 4 7 8 8 7 5 4 3 2 2 2 2 2 3 3 3 3 2 2 2 2 2 2 3 2 2 2 2 1 1 1 1 1 1 1 1 1 2
1 2 1 1 0 2 3 3 3 2 3 6 8 8 7 6 4 3 3 2 3 2 2 2 3 3 3 3 2 2 2 2 2 2 2 2 2 2 2 2 2 2 1 1 1 1 2 2 2
2 0 2 2 1 2 4 2 3 1 5 7 7 6 5 5 5 4 3 3 3 2 2 2 3 3 3 3 2 2 2 2 2 2 2 2 2 2 2 2 2 2 2 1 1 1 2 2 2
2 2 3 2 1 1 4 3 1 3 6 6 5 5 5 3 4 4 4 3 3 3 2 3 3 3 3 3 2 2 2 2 2 2 2 2 2 2 2 2 2 2 2 2 2 2 2 2 2
3 3 2 3 1 1 4 1 2 3 7 6 5 4 4 2 3 3 3 3 2 3 3 2 3 3 3 3 2 2 2 3 2 2 2 2 2 2 2 2 2 2 2 2 2 2 2 2 2
3 1 2 3 0 2 3 2 2 4 6 5 5 4 4 3 2 2 3 3 3 3 3 3 3 3 3 3 3 3 3 3 2 2 2 2 3 3 2 2 2 2 2 2 2 2 2 2 2
2 2 2 3 2 2 2 2 1 3 5 4 4 4 3 4 4 3 3 3 3 3 3 3 3 2 3 3 3 3 3 3 2 2 2 3 2 3 2 2 2 2 2 3 3 2 2 2 2
4 3 3 4 2 3 2 2 2 3 4 4 3 4 4 5 4 3 3 4 4 3 3 3 3 2 2 2 2 2 1 1 2 2 3 3 2 2 3 2 2 2 2 2 2 2 3 3 2
3 2 2 3 1 2 1 1 1 3 4 5 6 6 6 4 3 3 4 4 4 4 4 3 3 3 3 2 2 2 2 2 2 2 3 3 3 2 2 2 2 2 2 3 3 2 2 2 3
2 4 4 2 2 3 3 3 2 1 1 2 3 4 5 6 6 5 5 5 4 4 5 4 3 3 3 3 3 3 3 2 2 3 2 3 3 3 2 2 2 2 2 1 2 2 2 2 2
4 4 5 3 3 1 2 2 5 2 2 3 4 5 6 6 5 5 6 5 5 5 4 4 4 3 3 3 4 4 3 2 1 0 1 2 2 2 2 2 2 2 2 2 1 2 1 2 1
4 2 3 3 3 2 2 1 6 1 3 5 6 5 6 6 6 6 6 6 5 5 4 4 4 3 2 3 4 4 3 2 1 1 2 2 2 2 2 2 2 2 1 1 2 2 1 1 1
4 6 6 6 5 1 2 2 6 3 5 5 5 5 5 5 5 5 4 4 4 4 4 4 4 3 3 3 3 4 4 3 3 2 1 1 1 2 2 2 2 1 1 1 1 1 1 1 1
4 6 4 4 3 4 1 2 8 6 4 5 5 5 4 5 5 6 6 6 6 6 5 4 4 3 3 3 3 3 3 3 3 2 1 1 1 1 1 1 1 1 1 1 1 1 1 0 1
4 7 7 5 4 4 2 4 7 4 2 2 3 3 3 3 4 5 6 6 6 7 6 6 5 4 3 3 3 3 3 2 2 2 1 1 1 1 1 1 1 1 1 1 1 1 1 1 0
6 3 5 7 2 0 4 5 7 1 2 1 1 2 3 3 3 4 5 6 6 6 6 6 6 4 3 3 3 2 2 2 2 2 1 1 1 1 0 0 1 1 1 1 1 1 1 1 1
4 8 6 6 5 2 4 4 5 4 2 1 1 2 1 2 3 3 4 5 5 5 5 5 5 5 4 3 3 2 2 2 2 2 1 1 0 0 1 1 1 1 1 1 1 1 1 1 1
3 4 5 5 5 6 3 7 5 6 4 4 2 2 3 3 4 4 3 4 4 4 5 4 4 4 3 3 2 2 2 2 2 1 1 1 0 1 1 1 0 0 1 1 1 1 1 1 1
3 5 7 5 3 4 4 7 3 3 3 3 3 2 2 2 3 4 4 4 4 4 4 4 3 3 3 3 3 2 2 2 2 1 0 0 0 0 1 1 1 0 1 1 1 1 1 1 0
Wind_Direction
160 146 141 155 51 41 343 317 337 354 14 6 49 79 85 68 78 176 337 105 118 128 136 145 149 152 150 146 143 144 146 145 146 147 147 147 149 151 154 157 158 160 161 162 161 160 159 159 161
152 157 173 67 67 39 328 331 32 9 138 128 60 62 61 51 45 98 71 103 112 122 119 140 151 154 146 143 143 144 140 138 137 140 145 147 147 150 157 159 162 164 164 164 162 162 162 162 163
168 193 99 58 59 129 299 326 75 66 68 52 57 53 63 57 91 126 140 123 108 112 116 157 156 157 148 149 145 141 137 138 138 138 142 144 146 153 160 161 162 163 163 162 163 165 167 166 166
172 148 55 54 12 292 253 280 255 65 33 42 71 54 46 29 105 120 115 116 111 102 112 172 156 156 156 155 149 145 144 143 144 141 138 140 145 149 156 162 161 163 165 165 166 171 174 171 171
119 75 49 27 331 313 310 323 356 25 24 52 76 77 39 12 68 100 112 115 115 91 58 236 146 154 158 156 151 146 137 135 133 133 133 136 141 145 149 157 160 164 167 167 169 178 178 175 175
51 57 57 360 329 334 349 9 33 50 56 62 76 81 41 33 74 103 106 100 102 91 37 6 126 138 145 146 142 136 127 127 129 132 134 135 137 138 146 153 156 162 171 173 174 178 177 180 178
92 76 73 328 325 343 355 26 41 55 61 59 93 86 46 33 78 96 86 77 73 67 44 16 40 106 136 141 135 126 121 122 126 132 134 137 138 137 138 139 142 158 169 169 170 180 183 182 179
124 90 48 334 304 302 357 49 48 68 69 81 88 119 160 164 107 89 77 68 63 52 38 31 39 47 67 103 119 117 118 117 116 118 121 126 127 122 134 141 140 151 160 171 177 181 185 185 181
114 73 341 230 205 265 73 63 33 58 82 71 73 115 128 119 109 93 75 57 53 48 27 29 40 46 55 66 88 88 103 100 92 94 93 81 55 64 120 132 133 141 156 165 173 174 172 176 178
103 124 231 222 185 211 356 80 130 83 73 72 73 74 98 109 112 108 103 105 93 46 22 29 46 58 66 75 59 56 73 72 67 58 51 44 33 33 77 98 114 128 134 151 158 153 149 158 150
155 190 231 261 198 165 136 69 85 113 104 171 139 127 119 117 110 111 114 121 141 130 60 48 65 71 81 68 66 56 61 62 60 55 49 46 34 23 40 56 36 59 85 80 97 96 111 126 139
173 245 218 239 142 121 146 124 88 112 182 146 132 135 133 132 137 142 138 137 109 88 64 69 76 79 79 77 73 69 68 65 59 52 52 52 38 28 49 62 48 49 62 77 79 102 111 121 134
192 274 298 223 222 128 106 97 104 95 106 110 117 125 137 144 144 138 123 105 95 94 79 78 84 86 84 80 74 75 68 70 59 50 47 59 54 42 48 58 55 46 48 56 70 105 122 128 130
194 144 348 3 69 96 104 73 82 113 121 119 128 139 149 156 153 138 128 124 123 123 109 87 88 92 92 88 83 75 70 70 63 52 47 62 64 61 54 49 47 39 33 32 54 89 115 123 132
87 60 5 5 49 86 100 45 42 161 132 133 145 149 149 155 152 155 161 154 149 136 114 106 111 95 94 94 92 82 70 68 59 45 44 62 74 73 66 56 43 27 27 34 48 57 81 95 100
52 59 358 299 90 93 106 242 262 149 141 149 158 155 153 162 168 172 158 150 136 118 108 105 113 105 101 92 82 69 65 68 54 41 43 53 73 85 84 71 44 23 38 37 46 58 70 72 74
38 68 248 284 259 121 123 222 228 144 147 161 167 164 165 169 178 186 167 156 144 138 125 111 104 109 108 93 80 71 65 59 50 46 45 43 59 71 84 73 48 40 50 42 48 56 72 77 69
229 239 256 254 259 116 155 233 206 162 158 172 172 171 177 188 206 192 172 155 141 135 126 121 110 101 100 89 77 67 59 48 46 49 44 49 58 68 75 67 48 49 57 46 41 50 54 67 68
176 200 250 261 238 137 195 252 241 175 165 177 186 189 197 205 201 171 165 154 136 128 129 135 130 121 111 99 95 84 65 49 45 46 45 47 51 63 73 61 50 53 58 52 50 61 56 46 49
175 207 266 311 25 116 119 296 251 182 191 192 194 198 200 200 175 171 168 159 158 155 152 146 144 138 133 127 123 116 108 86 68 40 42 43 48 54 80 75 67 61 62 50 48 61 65 52 40
209 194 206 204 31 45 69 342 306 254 202 191 200 200 198 199 195 186 181 172 161 163 165 159 154 144 136 124 105 92 72 55 48 39 26 23 41 54 62 62 69 63 71 64 49 65 82 79 41
251 216 174 159 114 328 87 282 283 251 265 222 216 204 203 207 196 182 176 173 171 168 159 147 147 142 136 129 124 127 122 115 112 85 44 26 40 50 52 56 61 61 63 67 53 64 76 94 76
212 117 111 116 115 54 17 172 284 316 255 244 227 210 198 200 190 183 181 174 163 152 151 144 138 131 124 128 136 126 115 117 99 75 58 35 28 40 47 54 55 55 52 54 53 57 75 91 102
133 67 54 50 69 6 255 188 277 241 233 246 227 213 194 186 182 173 163 146 144 138 133 134 133 130 128 128 130 136 139 135 118 98 75 32 18 22 31 57 56 55 51 43 44 56 69 85 101
102 93 44 7 11 262 263 213 253 255 245 230 224 215 193 178 175 169 164 161 157 148 146 145 143 142 141 135 135 145 152 151 151 150 139 116 31 0 350 47 59 48 32 38 45 63 46 65 135
170 144 157 187 214 273 308 245 258 275 286 240 186 172 142 159 170 175 174 168 164 159 157 154 159 161 164 156 156 152 156 157 156 159 152 161 196 248 326 43 78 63 55 50 48 49 16 34 73
142 163 155 126 127 6 284 290 301 319 11 47 106 117 137 164 171 169 161 162 163 166 167 166 164 164 167 163 153 150 155 152 152 154 147 163 224 197 105 83 59 48 53 58 73 49 16 30 16
130 140 107 118 142 219 290 282 256 264 264 279 207 153 175 158 147 148 156 160 164 169 164 159 161 164 158 156 166 166 165 152 145 144 150 170 202 109 115 90 58 36 33 46 63 43 12 44 13
108 98 104 110 143 151 221 267 233 214 207 205 211 184 180 172 159 151 151 152 146 142 144 151 158 151 154 161 157 145 151 144 134 145 163 180 190 164 143 150 119 49 16 41 70 51 46 57 14
137 147 143 146 184 162 169 262 289 205 196 175 178 184 163 152 148 138 131 129 130 132 136 146 156 160 164 150 139 141 135 132 138 154 174 154 191 201 176 154 146 155 27 31 77 52 48 87 348